CAPE
959 1036 788 639 809 1016 1181 1118 1031 1156 1039 998 1074 676 869 854 1054 1073 1483 1466 1874 1874 1084 1188 1049 1070 1224 788 766 451 415 454 531 603 123 50 188 397 327 147 9 0 0
1048 1066 903 941 990 1260 1446 1517 1396 1443 1234 1322 1228 1156 1013 1050 1000 1033 1469 1931 1973 1580 1358 1025 1067 907 1190 1096 750 889 489 565 708 356 125 14 76 263 112 333 162 24 10
1209 1138 1080 1061 1077 1482 1859 1844 1731 1795 1387 1403 1474 1638 1512 1658 1379 1381 1401 2092 1818 1790 2113 1689 1458 1399 1175 1136 886 1235 845 800 664 793 17 86 123 72 264 193 191 49 91
1104 1327 1232 1111 1145 1613 2020 2307 2199 2211 1805 1779 1386 1597 1711 1515 1451 1012 1734 2025 2185 2077 2251 2263 1997 2149 1986 1493 947 1190 1150 1134 1051 1165 441 75 556 569 309 394 108 75 179
1243 1154 1289 1308 1239 1347 1934 2514 2572 2434 2200 1674 2084 1779 2176 2252 1740 1437 1512 1477 2270 2472 2367 2200 2202 2336 2310 2056 1278 1362 848 1477 1385 1334 1091 523 116 590 476 189 290 488 524
1289 1335 1285 1428 1393 1459 1612 2111 2813 2703 2514 2230 1566 2420 1935 2220 2301 1978 1527 1315 2215 2203 2489 2185 2441 2126 1892 1918 1615 1762 1677 1703 1539 1539 1131 1109 886 814 497 417 262 334 553
792 1471 1430 1456 1546 1534 1564 1830 2745 2841 2865 2772 2342 1753 2701 2301 2205 2312 1582 1748 1724 1642 1947 2106 2069 2239 2236 2034 1992 1530 1664 1958 1783 1593 1428 1487 897 659 646 708 520 604 609
702 856 1492 1575 1636 1698 1818 1846 2796 2896 3263 3020 2747 2545 2003 2870 3010 2517 2245 2467 1720 1487 1584 2543 2032 1719 1988 2211 2148 1829 1769 1884 1674 1681 1657 1161 964 1366 1176 751 836 699 913
583 397 1288 1767 1921 1880 1938 1993 2636 2905 3010 3321 3339 2975 3004 2569 2656 2621 2845 2258 2484 2359 2427 2131 2034 2367 2343 1931 2274 1824 1754 1600 1454 1228 1648 1374 1184 1614 1451 1301 1011 798 662
639 413 1220 1445 1796 1893 2009 2094 2423 2808 2860 2828 3267 3326 3222 3246 2880 2939 2745 2879 2506 2157 1820 2255 2052 2138 2317 2457 2393 2055 2030 1991 1489 1497 1601 1657 1609 1748 1709 1528 1242 1033 1206
1912 1569 1303 1545 1593 1691 1945 2172 2063 1841 2463 2656 2764 2924 3027 3047 3210 2984 2846 3119 2527 2517 2642 2403 2329 2507 2449 2366 2556 2576 2345 2150 1812 1711 1666 1390 1443 1682 1726 1635 1315 1317 1358
2482 2454 2224 2247 2109 1994 2127 2358 2337 1985 2368 2805 2814 2835 2754 2919 2941 2978 2948 3019 2959 2857 2643 2441 2790 2591 2427 2875 2744 2533 2592 2115 1663 1708 1736 1671 2105 2038 1638 1437 1420 1673 1290
1822 2173 2580 2845 2850 2925 2905 2807 2843 2796 2631 2830 2723 2630 2645 2593 2716 2594 2564 2362 2518 2368 2124 2535 2282 2534 2771 2778 2528 2426 2462 2726 2224 2749 2199 2135 2083 2047 2093 1827 1721 1746 1772
1805 1873 2172 2479 2948 3081 3181 2933 2617 2530 2543 2807 2625 2630 2369 2340 2322 1809 1703 1327 818 109 0 11 2063 1952 2164 2232 1793 1556 1770 2301 2504 2592 2744 2819 2491 2279 2014 2153 2270 1813 1893
1517 1672 2225 2617 2938 2843 2873 2849 2781 2861 2899 2892 2610 2514 2598 2475 1925 850 722 809 2538 2181 1327 908 1061 905 757 113 99 224 263 977 2157 2458 2721 2993 2744 2721 2446 2181 2364 2164 2059
1168 1528 1947 2173 1944 2151 2771 3101 2917 2583 2397 2584 3032 3322 2337 2087 1778 1751 1871 2791 2428 1626 1134 955 723 183 0 0 0 0 122 424 1313 2465 2882 3209 2878 2725 2567 2527 2239 2235 1991
1065 1316 1639 1728 2077 2113 2214 2293 2245 2563 2745 3283 3777 3838 3699 2318 2009 2842 2645 2725 1642 586 212 115 51 0 0 0 0 0 22 103 368 1241 2101 2492 2862 2643 2818 2296 2117 1875 1525
1217 1279 1332 1901 1848 1855 1777 1829 2007 2629 2655 2762 3556 3764 3665 3550 2897 2138 950 539 533 154 13 0 0 0 0 0 0 0 0 16 191 402 1692 2448 2378 2764 2919 2697 2459 2305 1599
1086 1130 1375 1706 1831 1813 1858 1909 2005 2051 2350 2019 2542 3615 3748 3623 3145 1963 1180 1483 514 175 0 0 0 0 0 0 0 0 0 0 210 710 2340 2723 2912 2790 2469 2729 2754 2828 2576
543 662 1010 1004 925 808 1107 1772 1937 2114 1962 1909 2056 2244 2194 2593 2833 2617 2705 2441 1529 488 86 76 151 202 314 85 39 75 108 164 665 2713 2600 2668 2626 2852 2491 2371 2538 2331 2178
194 252 303 441 363 373 431 735 1096 1638 1419 1696 2220 2358 2206 2557 2336 2267 2475 2593 2404 1785 1319 1270 1654 1635 1178 831 625 632 418 1410 1656 2115 2754 3291 2849 1961 1498 1401 2138 2327 2403
4 0 0 13 4 5 50 150 383 563 563 678 818 984 1417 2128 1703 2191 1566 1324 1544 1569 1633 1409 1189 752 441 371 615 789 607 483 744 1132 1615 2312 1810 1993 1806 1574 1843 2006 2154
0 0 0 0 0 0 0 20 91 125 166 292 311 340 536 811 1285 2368 1973 2240 2037 1755 1472 1512 1364 920 935 872 971 955 380 76 8 110 939 1120 1294 1231 1192 1289 1402 1332 1629
0 0 0 0 0 0 0 20 73 151 282 277 280 347 383 404 409 499 1010 2407 1844 1643 1604 1411 1151 801 772 649 1171 613 372 174 359 551 535 621 729 646 983 1123 877 1080 1631
0 0 0 0 0 0 0 0 0 21 70 102 106 200 290 221 157 158 164 208 709 1745 1353 1108 1026 1046 904 567 275 872 644 635 636 1575 954 364 463 683 724 832 1095 779 847
1 2 0 0 0 0 0 0 0 0 0 0 0 0 40 71 97 79 126 113 4 0 19 212 391 727 452 219 38 32 129 0 2 155 472 742 455 597 734 659 653 596 751
CIN
-101 -103 -117 -120 -87 -71 -76 -95 -93 -68 -89 -88 -65 -71 -29 -13 -16 -17 -17 -10 -3 -3 -15 -16 -17 -8 -10 -13 -14 -24 -23 -21 -10 -23 -50 -81 -45 -17 -19 -41 -103 0 0
-100 -103 -123 -113 -90 -93 -85 -84 -88 -82 -86 -60 -52 -20 -17 -6 -13 -29 -21 -11 -4 -13 -16 -13 -25 -25 -3 -12 -21 -15 -26 -27 -17 -25 -46 -57 -51 -36 -64 -35 -52 -86 -135
-81 -102 -123 -113 -112 -95 -77 -92 -104 -97 -107 -68 -35 -2 -2 -3 -5 -20 -23 -13 -20 -12 -4 -11 -13 -6 -14 -12 -23 -21 -32 -20 -25 -23 -66 -37 -31 -54 -53 -60 -44 -71 -81
-71 -98 -111 -119 -123 -99 -81 -68 -72 -78 -97 -69 -69 -35 -16 -10 -7 -7 -7 -14 -18 -27 -12 -4 -15 -8 -5 -6 -22 -11 -15 -15 -10 -2 -47 -88 -19 -3 -15 -28 -58 -81 -60
-52 -77 -97 -96 -108 -114 -96 -64 -69 -75 -79 -93 -44 -42 -16 -1 -9 -12 -1 -8 -20 -16 -7 -10 -11 -11 -13 -10 -17 -6 -35 -11 -7 -4 -3 -33 -58 -14 -18 -21 -24 -18 -20
-15 -55 -68 -86 -97 -103 -115 -108 -91 -87 -84 -104 -103 -41 -47 -20 -4 -8 -10 -19 -11 -26 -9 -7 -10 -21 -27 -22 -13 -2 -7 -6 -7 -1 -8 -4 -4 -9 -24 -29 -22 -34 -28
-5 -21 -46 -67 -98 -93 -122 -115 -100 -80 -76 -78 -94 -98 -43 -40 -18 -13 -37 -8 -12 -12 -14 -25 -10 -13 -19 -21 -12 -14 -12 -4 -9 -9 -7 -3 -21 -27 -24 -22 -27 -25 -25
-7 -11 -27 -47 -65 -74 -88 -95 -105 -92 -59 -64 -79 -86 -93 -31 -23 -16 -11 -5 -5 -9 -14 -27 -18 -20 -8 -11 -10 -7 -10 -8 -12 -7 -4 -16 -17 -4 -15 -17 -18 -31 -8
-9 -22 -19 -29 -44 -65 -68 -83 -72 -100 -90 -57 -29 -46 -52 -58 -29 -16 -2 -15 -9 -10 -15 -26 -21 -21 -23 -17 -3 -20 -18 -11 -7 -19 -7 -19 -19 -18 -23 -28 -21 -18 -13
-34 -17 -14 -20 -16 -19 -42 -62 -57 -89 -82 -69 -39 -30 -22 -24 -37 -11 -3 -3 -8 -11 -10 -6 -8 -10 -9 -6 -4 -8 -16 -15 -19 -16 -10 -15 -17 -10 -10 -18 -21 -21 -2
-23 -17 -5 -6 -12 -10 -4 -44 -64 -88 -79 -83 -52 -37 -22 -13 -12 -21 -15 -2 -12 -8 -10 -14 -12 -15 -15 -13 -2 -1 -2 -9 -40 -33 -21 -23 -12 -14 -5 -6 -17 -9 -8
-32 -26 -25 -12 -31 -4 -3 -10 -39 -77 -55 -35 -46 -19 -17 -7 -3 -15 -19 -2 -4 -6 -7 -12 -5 -9 -15 0 -1 -2 -2 -13 -42 -36 -23 -20 -5 -5 -15 -13 -14 -6 -44
-27 -28 -40 -51 -52 -51 -24 -21 -36 -41 -18 -48 -55 -47 -23 -10 -3 -13 -25 -23 -5 -11 -1 -1 -22 -5 -9 -9 -12 -6 -2 -1 -11 -2 -19 -17 -21 -19 -12 -10 -17 -16 -16
-30 -2 -15 -54 -65 -55 -65 -60 -88 -49 -23 -53 -88 -71 -58 -39 -42 -54 -66 -45 -38 -154 0 -37 -4 -9 -5 -4 -12 -25 -11 -10 -4 -5 -2 -3 -10 -17 -20 -6 -3 -12 -1
-4 -22 -14 -46 -51 -75 -78 -71 -36 -17 -22 -14 -32 -56 -46 -45 -85 -149 -144 -80 -2 -24 -89 -78 -140 -166 -200 -368 -348 -322 -298 -115 -4 -11 -9 -3 -12 -15 -17 -7 -7 -7 -5
-2 -9 -32 -51 -78 -85 -59 -15 -13 -45 -58 -48 -30 -6 -94 -115 -124 -70 -36 -5 -42 -105 -141 -149 -183 -318 0 0 0 0 -309 -218 -80 -3 -3 -5 -10 -8 -10 -7 -14 -6 -4
-12 -4 -6 -26 -25 -45 -42 -49 -44 -28 -22 -5 -1 -8 -3 -87 -91 -18 -45 -49 -117 -274 -318 -335 -315 -69 0 0 0 0 -246 -255 -175 -86 -15 -17 -1 -18 -30 -43 -27 -29 -25
-6 -2 -10 -7 -4 -13 -21 -33 -30 -12 -19 -10 -1 -22 -19 -12 -48 -102 -203 -286 -293 -369 -177 0 0 0 0 0 0 0 0 -326 -266 -252 -31 -2 -18 -3 -7 -3 -15 -37 -44
-35 -35 -12 -46 -51 -38 -9 -14 -17 -23 -6 -30 -5 -1 -2 -1 -45 -97 -167 -129 -296 -405 0 0 0 0 0 0 0 0 0 0 -243 -219 -9 -7 -7 -8 -10 -11 -6 -7 -21
-125 -85 -59 -71 -112 -122 -82 -41 -22 -6 -8 -11 -18 -26 -39 -25 -26 -39 -35 -44 -132 -257 -393 -366 -307 -304 -272 -337 -342 -304 -223 -281 -202 -5 -8 -24 -20 -21 -13 -6 -5 -7 -30
-184 -153 -115 -101 -124 -152 -156 -128 -114 -47 -91 -82 -69 -52 -48 -42 -50 -46 -39 -32 -48 -77 -99 -102 -93 -104 -146 -167 -202 -204 -255 -67 -35 -25 -2 -2 -23 -62 -76 -34 -3 -14 -20
-104 0 0 -75 -71 -91 -225 -179 -156 -163 -170 -155 -138 -140 -113 -56 -55 -23 -76 -91 -92 -92 -85 -76 -92 -123 -163 -156 -154 -164 -190 -200 -189 -136 -92 -40 -123 -91 -62 -102 -65 -38 -16
0 0 0 0 0 0 0 -300 -255 -239 -224 -203 -210 -204 -177 -151 -106 -19 -28 -22 -48 -54 -65 -57 -59 -68 -52 -53 -64 -84 -160 -255 -126 -315 -179 -192 -143 -175 -152 -128 -126 -127 -46
0 0 0 0 0 0 0 -278 -266 -225 -181 -184 -172 -151 -140 -152 -159 -136 -77 -1 -23 -29 -38 -43 -53 -50 -32 -25 -41 -72 -108 -193 -197 -191 -233 -222 -212 -228 -145 -121 -177 -135 -64
0 0 0 0 0 0 0 0 0 -140 -201 -192 -204 -162 -115 -123 -142 -137 -125 -89 -36 -1 -7 -16 -16 -12 -8 -14 -27 -31 -31 -52 -81 -37 -108 -214 -195 -131 -108 -80 -53 -118 -92
-33 -75 0 0 0 0 0 0 0 0 0 0 0 0 -172 -164 -123 -113 -101 -96 -48 0 -14 -52 -58 -33 -68 -78 -105 -40 -145 0 -52 -171 -93 -65 -122 -102 -58 -49 -67 -86 -69
Wind_Speed
19 19 20 20 21 20 19 19 19 16 13 12 14 13 11 8 7 7 8 7 8 8 8 8 8 7 7 8 9 7 5 6 9 13 8 7 8 9 8 10 11 10 10
18 19 20 20 19 18 18 20 20 17 17 16 15 12 10 8 8 7 7 7 7 7 7 8 7 7 7 7 8 7 8 8 8 11 16 14 13 12 12 13 12 12 10
19 20 21 21 19 18 17 17 18 18 18 17 15 12 9 9 6 5 7 5 6 5 5 7 7 11 8 8 8 8 8 8 9 9 12 15 13 13 11 10 10 9 9
19 21 22 21 21 20 19 18 16 15 16 17 15 13 11 7 5 3 4 4 6 5 5 5 5 7 7 13 8 8 9 8 8 10 7 8 9 13 13 12 9 8 7
20 21 21 20 21 20 20 19 18 16 14 15 12 12 11 9 9 6 3 3 4 4 4 3 3 5 8 9 7 9 8 7 7 7 10 8 6 6 5 11 12 8 6
16 18 18 19 20 21 20 17 17 16 15 14 15 9 9 11 7 7 3 3 3 4 2 3 2 4 7 8 11 5 7 5 5 5 5 5 8 8 9 9 9 8 8
7 14 14 14 18 20 19 17 16 14 15 15 15 14 9 7 8 4 3 4 3 5 1 2 2 3 3 7 10 11 6 5 4 2 3 3 4 5 6 8 9 11 12
7 12 12 16 21 17 16 16 14 12 12 13 13 12 14 11 4 3 2 7 6 6 4 1 2 0 3 2 6 7 6 1 1 2 2 3 4 11 7 8 14 15 12
12 2 11 12 14 13 13 12 11 11 9 8 8 8 6 8 6 6 2 3 10 20 13 4 4 5 4 5 6 7 3 2 1 3 4 4 8 9 9 9 10 10 16
18 8 9 9 8 11 10 9 8 9 7 6 6 5 4 4 4 4 3 5 9 8 11 13 13 13 10 9 9 10 8 6 4 7 2 3 4 7 6 8 8 7 7
16 14 8 3 2 3 4 4 2 2 4 3 2 1 0 2 3 4 6 6 10 21 13 14 14 15 16 15 15 10 10 7 3 3 4 1 6 7 8 6 7 7 8
14 13 9 12 10 6 5 4 4 2 1 3 4 4 3 3 3 4 5 5 6 24 28 21 21 15 13 17 15 13 10 4 5 3 3 4 11 5 2 6 8 9 9
14 11 11 9 8 10 10 8 10 8 6 7 8 7 6 6 6 7 6 8 8 22 30 25 18 13 13 16 19 13 18 10 8 5 5 4 2 9 13 12 11 9 9
11 11 9 9 9 8 11 13 9 9 8 9 10 9 9 8 7 6 7 6 7 19 34 38 25 26 24 28 32 33 34 27 20 22 23 20 17 14 16 16 14 12 9
12 11 11 13 13 13 12 11 9 10 14 15 13 12 11 10 6 3 3 4 15 17 13 10 19 21 20 23 29 31 33 33 29 24 24 26 25 21 19 18 15 12 11
14 11 13 13 12 12 12 12 13 13 14 15 17 16 9 6 4 7 9 15 19 20 19 17 16 19 20 21 21 27 32 33 32 27 24 25 26 24 22 21 16 11 11
15 17 11 12 10 12 13 13 13 14 16 16 17 15 12 7 9 13 14 15 15 14 13 13 14 18 23 22 26 27 32 34 33 32 30 27 25 22 19 18 16 14 13
15 16 18 14 14 14 12 12 14 15 17 17 17 17 14 11 12 14 16 17 15 14 13 16 18 20 21 21 27 27 27 37 37 36 33 31 31 32 3 10 4 7 9
15 17 18 17 19 20 18 15 17 20 18 17 18 15 14 14 13 14 16 14 15 12 14 16 18 17 19 21 21 23 23 25 36 35 33 33 34 31 15 4 3 1 0
16 17 17 17 19 20 22 21 20 19 17 19 19 20 21 20 18 17 15 15 14 14 13 16 18 17 19 20 17 13 7 2 23 26 31 34 34 27 14 13 7 4 4
15 16 17 17 19 20 22 22 23 24 25 26 26 26 27 28 23 24 22 18 17 17 15 17 18 17 17 16 9 10 11 14 29 33 33 30 25 25 24 32 32 7 12
16 17 18 20 22 23 25 26 26 27 29 30 31 32 31 30 29 26 23 23 23 23 24 24 24 23 22 18 14 11 16 24 32 36 35 33 34 35 26 14 13 14 13
19 19 21 23 24 26 28 30 31 32 33 33 34 34 35 35 35 33 29 28 26 26 26 26 26 26 26 25 17 13 15 22 25 28 31 34 37 37 36 31 25 18 16
22 24 26 27 28 29 30 32 34 33 33 33 34 34 34 36 36 36 36 32 30 30 29 28 29 31 30 28 20 17 21 22 26 29 29 30 32 32 32 28 23 20 20
27 29 31 31 31 32 32 32 32 33 34 35 36 37 36 35 34 34 34 34 36 34 33 34 33 32 32 28 27 21 21 21 23 23 27 30 29 30 28 25 22 20 19
29 31 32 32 32 33 33 34 34 35 36 38 37 37 37 36 35 35 35 31 30 32 36 40 41 41 34 28 26 23 23 24 25 29 31 30 28 26 24 25 23 20 17
Wind_Direction
125 120 128 128 126 120 122 131 135 118 101 93 120 115 103 87 58 64 70 63 51 60 65 30 58 72 96 43 33 65 116 130 70 46 94 101 134 137 84 63 97 96 109
131 130 135 129 131 124 124 129 136 127 128 127 126 114 110 89 91 84 92 82 32 49 65 31 66 76 66 51 39 64 45 48 54 49 24 47 65 96 95 97 100 118 101
143 143 145 144 140 130 130 131 135 131 137 136 132 119 95 8 27 93 102 77 73 48 48 19 27 358 24 42 50 60 51 56 46 54 38 40 50 60 71 89 90 93 93
150 150 153 152 147 142 137 138 136 133 138 146 131 126 115 91 30 43 110 111 108 100 103 70 47 29 31 351 30 40 40 52 54 42 104 133 60 40 42 56 92 115 93
156 159 159 155 157 148 143 140 144 145 142 148 136 130 132 125 115 113 75 65 107 101 115 102 51 24 2 4 32 24 28 45 49 62 37 67 109 118 83 39 42 76 80
157 156 158 157 157 152 151 143 142 148 149 151 160 138 139 157 116 119 63 73 67 118 103 20 15 355 351 347 345 25 21 36 44 67 76 80 41 52 34 30 37 43 49
157 159 160 161 156 158 154 150 145 145 154 157 164 171 159 155 162 81 72 4 347 350 174 168 10 356 352 340 335 337 358 9 25 103 104 77 44 29 26 22 27 27 31
166 171 159 162 166 158 156 155 146 145 148 163 168 171 182 178 158 168 172 344 328 323 316 347 346 145 354 351 341 342 345 13 135 169 151 176 5 2 20 20 9 13 30
330 332 170 154 156 155 155 155 149 149 145 150 159 172 174 187 188 190 224 281 313 310 332 338 321 332 339 352 340 337 336 203 299 334 338 343 360 3 12 21 19 24 16
323 348 148 146 159 152 151 149 144 152 140 144 151 158 176 194 215 227 264 303 306 305 305 319 316 319 324 325 324 323 328 329 327 332 338 358 12 16 37 21 29 50 70
332 333 345 107 107 125 147 105 94 91 119 121 130 142 139 228 250 243 245 301 297 298 311 312 312 314 314 315 315 318 322 331 328 210 203 279 354 2 16 48 45 80 84
342 334 343 318 351 357 340 18 26 110 99 20 4 347 337 325 283 268 264 275 289 291 289 303 305 312 315 313 314 316 317 307 221 259 260 221 338 2 112 151 148 136 126
16 353 354 7 346 326 354 8 342 348 358 6 355 353 350 345 335 326 326 328 298 291 282 289 305 310 315 314 309 309 219 218 223 232 233 209 196 184 188 185 181 149 139
25 18 3 357 352 341 331 327 12 0 5 5 358 354 348 347 342 330 332 16 27 310 295 250 297 301 308 302 290 281 255 229 218 221 223 212 203 201 203 200 187 175 145
26 359 357 333 324 326 331 333 344 348 341 345 352 355 358 350 4 6 24 6 341 335 341 338 324 319 328 324 308 296 283 273 236 221 220 222 219 212 206 200 187 170 160
9 357 336 329 322 322 322 321 331 333 336 338 337 345 0 1 355 359 354 339 331 325 325 329 331 328 328 328 325 311 297 280 265 226 219 220 224 216 209 204 192 171 166
353 345 348 327 324 321 318 318 323 329 333 337 339 343 345 358 347 342 342 345 341 343 345 340 338 334 326 332 325 311 293 288 278 261 234 226 220 211 201 198 195 194 188
358 350 339 349 332 319 315 322 326 326 328 334 339 342 340 341 348 340 337 341 343 343 350 342 338 340 338 338 344 327 290 274 272 262 247 237 236 245 209 188 190 185 191
359 344 343 339 330 323 321 319 315 316 324 330 334 342 340 335 338 333 323 330 336 338 337 343 347 352 350 358 14 4 358 287 256 251 240 241 243 231 212 245 232 266 255
354 350 344 344 338 324 322 319 318 318 319 323 326 325 322 323 324 322 319 322 323 322 324 326 328 331 330 333 348 360 5 243 230 236 239 243 237 223 231 277 221 275 303
353 348 342 340 336 331 325 321 316 311 314 315 315 316 314 315 313 312 315 314 312 311 311 314 319 322 323 325 326 326 323 316 298 269 277 295 255 256 300 286 231 246 309
343 342 336 330 326 321 319 316 315 314 312 310 308 307 309 308 307 307 304 303 302 301 301 303 306 309 312 311 308 311 314 307 291 284 290 295 298 297 306 300 293 303 301
334 334 330 325 321 317 314 310 309 308 308 307 306 305 304 303 302 301 298 296 294 293 295 296 297 300 304 304 291 284 297 306 305 304 300 297 295 297 299 301 300 297 292
327 326 323 319 317 316 313 311 310 310 309 307 306 306 304 302 300 298 296 293 289 288 287 288 290 293 296 298 292 284 293 299 303 305 306 306 303 302 303 303 302 295 288
320 318 316 315 314 315 314 314 313 312 310 308 307 306 305 303 301 299 296 292 289 289 285 285 287 289 289 288 292 284 288 299 303 306 308 308 306 302 301 302 302 299 292
318 316 315 314 314 314 314 314 314 313 311 309 308 307 306 305 303 301 299 294 284 285 284 283 283 284 288 289 291 292 291 295 300 301 301 303 307 304 300 299 298 300 293